K5GTX Weather Reports


Display with metric or nautical units.
time (UTC)temp
F
wind
direction
speed
MPH
gust
MPH
rain 1hr
in
rain 24hr
in
rain mn
in
humidity
%
barometer
mb
20260508045828 62 99 0.0 0.0 0.00 0.00 0.00 99 1022.5
20260508045326 62 99 0.0 0.0 0.00 0.00 0.00 99 1022.5
20260508044823 62 99 0.0 0.0 0.00 0.00 0.00 99 1022.6
20260508044320 62 99 0.0 0.0 0.00 0.00 0.00 99 1022.5
20260508043816 62 99 0.0 0.0 0.00 0.00 0.00 99 1022.4
20260508043313 62 99 0.0 0.0 0.00 0.00 0.00 99 1022.2
20260508042810 62 66 0.0 1.0 0.00 0.00 0.00 99 1022.5
20260508042308 62 114 0.0 0.0 0.00 0.00 0.00 99 1022.4
20260508041804 62 114 0.0 0.0 0.00 0.00 0.00 99 1022.4
20260508041301 62 114 0.0 0.0 0.00 0.00 0.00 99 1022.3
20260508040757 62 90 0.0 0.0 0.00 0.00 0.00 99 1022.4
20260508040255 62 20 0.0 0.0 0.00 0.00 0.00 99 1022.4
20260508035752 62 20 0.0 0.0 0.00 0.00 0.00 99 1022.2
20260508035249 62 20 0.0 0.0 0.00 0.00 0.00 99 1022.5
20260508034745 62 20 0.0 0.0 0.00 0.00 0.00 99 1022.5
20260508034243 62 32 0.0 2.0 0.00 0.00 0.00 99 1022.5
20260508033740 62 54 0.0 1.0 0.00 0.00 0.00 99 1022.4
20260508033238 62 90 0.0 1.0 0.00 0.00 0.00 99 1022.4
20260508032735 62 90 0.0 0.0 0.00 0.00 0.00 99 1022.3
20260508032232 62 90 0.0 0.0 0.00 0.00 0.00 99 1022.2
20260508031729 62 90 0.0 0.0 0.00 0.00 0.00 99 1022.3
20260508031225 62 99 0.0 0.0 0.00 0.00 0.00 99 1022.3
20260508030722 62 99 0.0 0.0 0.00 0.00 0.00 99 1022.1
20260508030220 62 99 0.0 0.0 0.00 0.00 0.00 99 1022.2
20260508025716 63 99 0.0 0.0 0.00 0.00 0.00 99 1022.2
20260508025213 63 99 0.0 0.0 0.00 0.00 0.00 99 1022.2
20260508024709 63 90 0.0 0.0 0.00 0.00 0.00 99 1022.1
20260508024206 63 99 0.0 0.0 0.00 0.00 0.00 99 1022.2
20260508023702 63 99 0.0 1.0 0.00 0.00 0.00 99 1021.9
20260508023200 63 99 0.0 0.0 0.00 0.00 0.00 99 1021.9
20260508022655 64 90 0.0 0.0 0.00 0.00 0.00 99 1021.8
20260508022153 64 90 0.0 0.0 0.00 0.00 0.00 99 1021.6
20260508021649 64 90 0.0 0.0 0.00 0.00 0.00 99 1021.9
20260508021144 64 90 0.0 0.0 0.00 0.00 0.00 99 1021.7
20260508020643 64 90 0.0 0.0 0.00 0.00 0.00 99 1021.7
20260508020140 64 90 0.0 0.0 0.00 0.00 0.00 99 1021.6
20260508015637 64 90 0.0 0.0 0.00 0.00 0.00 99 1021.6
20260508015134 64 90 0.0 0.0 0.00 0.00 0.00 99 1021.8
20260508014630 64 90 0.0 0.0 0.00 0.00 0.00 99 1021.8
20260508014126 65 90 0.0 0.0 0.00 0.00 0.00 99 1021.8
20260508013623 65 90 0.0 0.0 0.00 0.00 0.00 99 1021.7
20260508013120 65 90 0.0 0.0 0.00 0.00 0.00 99 1021.7
20260508012617 65 90 0.0 0.0 0.00 0.00 0.00 99 1021.7
20260508012114 66 98 0.0 0.0 0.00 0.00 0.00 99 1021.4
20260508011613 66 105 0.0 1.0 0.00 0.00 0.00 99 1021.7
20260508011110 66 99 0.0 1.0 0.00 0.00 0.00 99 1021.7
20260508010606 66 261 0.0 1.0 0.00 0.00 0.00 99 1021.6
20260508010105 67 151 0.0 3.0 0.00 0.00 0.00 99 1021.5
20260508005601 67 90 1.0 1.0 0.00 0.00 0.00 99 1021.3
20260508005057 67 90 0.0 2.0 0.00 0.00 0.00 99 1021.6
20260508004553 67 90 1.0 1.0 0.00 0.00 0.00 99 1021.5
20260508004050 68 145 0.0 3.0 0.00 0.00 0.00 99 1021.4
20260508003546 68 90 0.0 2.0 0.00 0.00 0.00 99 1021.4
20260508003044 68 140 0.0 2.0 0.00 0.00 0.00 99 1021.3
20260508002540 69 160 0.0 3.0 0.00 0.00 0.00 99 1021.6
20260508002038 68 146 0.0 2.0 0.00 0.00 0.00 99 1021.6
20260508001533 69 148 2.0 2.0 0.00 0.00 0.00 99 1021.6
20260508001029 69 90 0.0 2.0 0.00 0.00 0.00 99 1021.5
20260508000525 70 194 0.0 3.0 0.00 0.00 0.00 99 1021.7
20260508000023 70 140 0.0 3.0 0.00 0.00 0.00 99 1021.6
20260507235519 71 144 0.0 2.0 0.00 0.00 0.00 99 1021.4
20260507235017 72 103 0.0 2.0 0.00 0.00 0.00 99 1021.5
20260507234513 72 120 0.0 4.0 0.00 0.00 0.00 99 1021.2
20260507234010 72 114 1.0 3.0 0.00 0.00 0.00 99 1021.4
20260507233506 72 98 0.0 2.0 0.00 0.00 0.00 99 1021.6
20260507233006 72 103 1.0 2.0 0.00 0.00 0.00 99 1021.4
20260507232501 72 254 0.0 1.0 0.00 0.00 0.00 99 1021.5
20260507231959 72 124 0.0 2.0 0.00 0.00 0.00 99 1021.2
20260507231455 72 99 0.0 2.0 0.00 0.00 0.00 99 1021.7
20260507230952 72 90 0.0 2.0 0.00 0.00 0.00 99 1021.5
20260507230449 73 105 1.0 3.0 0.00 0.00 0.00 99 1021.6
20260507225944 72 114 0.0 2.0 0.00 0.00 0.00 99 1021.5
20260507225440 72 115 2.0 2.0 0.00 0.00 0.00 99 1021.5
20260507224937 72 90 1.0 2.0 0.00 0.00 0.00 99 1021.6
20260507224432 72 90 2.0 2.0 0.00 0.00 0.00 99 1021.7
20260507223930 72 107 0.0 2.0 0.00 0.00 0.00 99 1021.8
20260507223426 73 100 0.0 2.0 0.00 0.00 0.00 99 1021.7
20260507222923 73 90 0.0 2.0 0.00 0.00 0.00 99 1022.0
20260507222420 73 117 1.0 2.0 0.00 0.00 0.00 99 1022.1
20260507221916 73 126 0.0 2.0 0.00 0.00 0.00 99 1022.0
20260507221413 73 124 3.0 3.0 0.00 0.00 0.00 99 1021.8
20260507220908 73 143 0.0 2.0 0.00 0.00 0.00 99 1021.9
20260507220407 73 112 0.0 2.0 0.00 0.00 0.00 99 1022.0
20260507215903 74 120 0.0 2.0 0.00 0.00 0.00 99 1021.9
20260507215400 74 96 0.0 3.0 0.00 0.00 0.00 99 1021.9
20260507214857 74 114 1.0 3.0 0.00 0.00 0.00 99 1022.1
20260507214355 75 125 0.0 2.0 0.00 0.00 0.00 99 1022.1
20260507213850 75 114 0.0 2.0 0.00 0.00 0.00 99 1022.2
20260507213347 75 120 0.0 2.0 0.00 0.00 0.00 99 1022.1
20260507212844 75 84 1.0 2.0 0.00 0.00 0.00 99 1022.2
20260507212340 75 157 1.0 2.0 0.00 0.00 0.00 99 1022.3
20260507211836 76 85 0.0 3.0 0.00 0.00 0.00 99 1022.5
20260507211333 76 111 0.0 1.0 0.00 0.00 0.00 99 1022.2
20260507210830 74 265 2.0 3.0 0.00 0.00 0.00 99 1022.6
20260507210327 76 105 0.0 2.0 0.00 0.00 0.00 99 1022.4
20260507205823 76 77 0.0 4.0 0.00 0.00 0.00 99 1022.5
20260507205321 76 101 2.0 4.0 0.00 0.00 0.00 99 1022.2
20260507204816 76 49 2.0 2.0 0.00 0.00 0.00 99 1022.4
20260507204314 75 0 0.0 5.0 0.00 0.00 0.00 99 1022.3
20260507203812 75 249 0.0 3.0 0.00 0.00 0.00 99 1022.4
20260507203310 75 0 2.0 4.0 0.00 0.00 0.00 99 1022.5
20260507202805 75 248 2.0 2.0 0.00 0.00 0.00 99 1022.7
20260507202306 75 105 0.0 2.0 0.00 0.00 0.00 99 1022.8
20260507201756 75 100 2.0 3.0 0.00 0.00 0.00 99 1022.8
20260507201253 74 52 0.0 7.0 0.00 0.00 0.00 99 1022.7
20260507200750 74 93 4.0 5.0 0.00 0.00 0.00 99 1023.0
20260507200246 74 34 5.0 7.0 0.00 0.00 0.00 99 1023.0
20260507195742 74 36 3.0 6.0 0.00 0.00 0.00 99 1023.1
20260507195239 75 331 0.0 3.0 0.00 0.00 0.00 99 1023.0
20260507194737 74 21 2.0 3.0 0.00 0.00 0.00 99 1023.2
20260507194232 73 28 3.0 10.0 0.00 0.00 0.00 99 1023.2
20260507193729 74 28 4.0 7.0 0.00 0.00 0.00 99 1023.3
20260507193226 73 73 5.0 5.0 0.00 0.00 0.00 99 1023.3
20260507192722 72 0 1.0 10.0 0.00 0.00 0.00 99 1023.6
20260507192219 74 152 2.0 4.0 0.00 0.00 0.00 99 1023.4
20260507191715 72 338 2.0 8.0 0.00 0.00 0.00 99 1023.6
20260507191213 73 114 3.0 4.0 0.00 0.00 0.00 99 1023.8
20260507190709 73 66 7.0 7.0 0.00 0.00 0.00 99 1023.8
20260507190208 72 63 1.0 4.0 0.00 0.00 0.00 99 1023.6
20260507185706 72 106 3.0 6.0 0.00 0.00 0.00 99 1023.7
20260507185202 72 146 2.0 7.0 0.00 0.00 0.00 99 1023.6
20260507184700 71 0 5.0 6.0 0.00 0.00 0.00 99 1023.8
20260507184158 71 54 1.0 8.0 0.00 0.00 0.00 99 1024.0
20260507183654 71 25 6.0 6.0 0.00 0.00 0.00 99 1024.3
20260507183151 71 68 2.0 8.0 0.00 0.00 0.00 99 1024.0
20260507182648 71 168 0.0 2.0 0.00 0.00 0.00 99 1024.1
20260507182143 70 62 0.0 10.0 0.00 0.00 0.00 99 1024.3
20260507181640 70 90 2.0 6.0 0.00 0.00 0.00 99 1024.2
20260507181136 70 120 0.0 8.0 0.00 0.00 0.00 99 1024.5
20260507180633 69 60 3.0 7.0 0.00 0.00 0.00 99 1024.7
20260507180130 70 11 2.0 4.0 0.00 0.00 0.00 99 1024.4
20260507175626 69 299 3.0 5.0 0.00 0.00 0.00 99 1024.7
20260507175123 69 49 5.0 8.0 0.00 0.00 0.00 99 1024.7
20260507174620 68 29 1.0 10.0 0.00 0.00 0.00 99 1024.8
20260507174118 68 58 5.0 10.0 0.00 0.00 0.00 99 1025.0
20260507173615 68 64 3.0 6.0 0.00 0.00 0.00 99 1025.4
20260507173112 68 90 1.0 4.0 0.00 0.00 0.00 99 1025.2
20260507172608 68 105 0.0 8.0 0.00 0.00 0.00 99 1025.4
20260507172106 68 349 2.0 3.0 0.00 0.00 0.00 99 1025.6
20260507171600 69 117 0.0 4.0 0.00 0.00 0.00 99 1025.8
20260507171058 68 28 2.0 5.0 0.00 0.00 0.00 99 1026.3
20260507170555 68 82 1.0 6.0 0.00 0.00 0.00 99 1026.3
20260507170052 67 25 3.0 5.0 0.00 0.00 0.00 99 1026.4
20260507165547 66 114 1.0 5.0 0.00 0.00 0.00 99 1026.1
20260507165044 67 90 3.0 5.0 0.00 0.00 0.00 99 1026.5
20260507164540 66 36 0.0 2.0 0.00 0.00 0.00 99 1026.3
20260507164037 66 0 2.0 9.0 0.00 0.00 0.00 99 1026.5
20260507163535 66 66 4.0 7.0 0.00 0.00 0.00 99 1026.7
20260507163032 65 32 3.0 6.0 0.00 0.00 0.00 99 1026.5
20260507162527 66 354 0.0 3.0 0.00 0.00 0.00 99 1026.4
20260507162024 65 81 3.0 7.0 0.00 0.00 0.00 99 1026.1
20260507161520 66 90 0.0 4.0 0.00 0.00 0.00 99 1026.4
20260507161017 65 105 1.0 5.0 0.00 0.00 0.00 99 1026.4
20260507160513 66 15 3.0 4.0 0.00 0.00 0.00 99 1026.5
20260507160010 66 125 2.0 3.0 0.00 0.00 0.00 99 1026.6
20260507155505 65 109 1.0 6.0 0.00 0.00 0.00 99 1026.7
20260507155003 64 79 0.0 4.0 0.00 0.00 0.00 99 1026.5
20260507154459 64 0 0.0 4.0 0.00 0.00 0.00 99 1026.9
20260507153956 64 72 0.0 5.0 0.00 0.00 0.00 99 1026.5
20260507153453 64 59 3.0 3.0 0.00 0.00 0.00 99 1026.8
20260507152949 62 14 5.0 6.0 0.00 0.00 0.00 99 1026.6
20260507152445 62 66 0.0 7.0 0.00 0.00 0.00 99 1026.7
20260507151941 63 29 1.0 3.0 0.00 0.00 0.00 99 1026.8
20260507151438 62 42 3.0 5.0 0.00 0.00 0.00 99 1026.9
20260507150935 62 75 0.0 4.0 0.00 0.00 0.00 99 1027.0
20260507150432 62 50 3.0 6.0 0.00 0.00 0.00 99 1027.1
20260507145928 62 317 4.0 7.0 0.00 0.00 0.00 99 1027.0
20260507145424 62 57 2.0 5.0 0.00 0.00 0.00 99 1026.9
20260507144921 63 0 3.0 8.0 0.00 0.00 0.00 99 1026.8
20260507144418 63 77 1.0 3.0 0.00 0.00 0.00 99 1027.2
20260507143915 63 84 2.0 4.0 0.00 0.00 0.00 99 1027.2
20260507143413 62 57 4.0 7.0 0.00 0.00 0.00 99 1027.1
20260507142909 62 75 1.0 3.0 0.00 0.00 0.00 99 1027.1
20260507142404 61 90 0.0 5.0 0.00 0.00 0.00 99 1027.2
20260507141902 60 99 2.0 4.0 0.00 0.00 0.00 99 1027.2
20260507141358 59 22 4.0 5.0 0.00 0.00 0.00 99 1027.4
20260507140855 59 34 0.0 5.0 0.00 0.00 0.00 99 1027.4
20260507140351 60 114 1.0 3.0 0.00 0.00 0.00 99 1027.4
20260507135849 59 78 2.0 4.0 0.00 0.00 0.00 99 1027.4
20260507135346 58 71 2.0 2.0 0.00 0.00 0.00 99 1027.3
20260507134843 58 0 2.0 3.0 0.00 0.00 0.00 99 1027.4
20260507134339 58 337 3.0 3.0 0.00 0.00 0.00 99 1027.4
20260507133835 57 297 1.0 4.0 0.00 0.00 0.00 99 1027.6
20260507133331 57 291 0.0 3.0 0.00 0.00 0.00 99 1027.5
20260507132830 57 337 3.0 4.0 0.00 0.00 0.00 99 1027.5
20260507132326 57 354 1.0 3.0 0.00 0.00 0.00 99 1027.4
20260507131823 56 352 0.0 3.0 0.00 0.00 0.00 99 1027.4
20260507131320 56 0 0.0 3.0 0.00 0.00 0.00 99 1027.5
20260507130817 56 289 3.0 3.0 0.00 0.00 0.00 99 1027.6
20260507130314 55 246 2.0 4.0 0.00 0.00 0.00 99 1027.3
20260507125813 55 32 3.0 6.0 0.00 0.00 0.00 99 1027.2
20260507125310 55 355 1.0 4.0 0.00 0.00 0.00 99 1027.3
20260507124807 55 15 1.0 2.0 0.00 0.00 0.00 99 1026.9
20260507124303 54 294 1.0 3.0 0.00 0.00 0.00 99 1027.3
20260507123802 54 342 0.0 2.0 0.00 0.00 0.00 99 1027.2
20260507123259 53 295 2.0 2.0 0.00 0.00 0.00 99 1027.2
20260507122754 53 279 0.0 2.0 0.00 0.00 0.00 99 1027.2
20260507122250 52 270 0.0 1.0 0.00 0.00 0.00 99 1027.1
20260507121746 52 270 0.0 0.0 0.00 0.00 0.00 99 1027.1
20260507121242 51 261 0.0 0.0 0.00 0.00 0.00 99 1026.9
20260507120738 51 261 0.0 0.0 0.00 0.00 0.00 99 1027.0
20260507120235 51 261 0.0 0.0 0.00 0.00 0.00 99 1026.9
20260507115731 51 261 0.0 0.0 0.00 0.00 0.00 99 1026.6
20260507115228 51 261 0.0 0.0 0.00 0.00 0.00 99 1026.8
20260507114723 51 261 0.0 1.0 0.00 0.00 0.00 99 1026.6
20260507114221 51 286 0.0 0.0 0.00 0.00 0.00 99 1026.6
20260507113718 51 279 0.0 1.0 0.00 0.00 0.00 99 1026.3
20260507113215 52 294 0.0 2.0 0.00 0.00 0.00 99 1026.6
20260507112713 51 278 0.0 0.0 0.00 0.00 0.00 99 1026.4
20260507112209 52 257 1.0 3.0 0.00 0.00 0.00 99 1026.3
20260507111707 52 217 0.0 2.0 0.00 0.00 0.00 99 1026.2
20260507111204 52 278 0.0 3.0 0.00 0.00 0.00 99 1026.1
20260507110659 51 291 0.0 2.0 0.00 0.00 0.00 99 1026.0
20260507110156 51 340 0.0 2.0 0.00 0.00 0.00 99 1026.0
20260507105653 51 297 0.0 1.0 0.00 0.00 0.00 99 1026.0
20260507105149 51 331 0.0 0.0 0.00 0.00 0.00 99 1025.8
20260507104647 51 279 0.0 0.0 0.00 0.00 0.00 99 1025.7
20260507104143 51 345 0.0 0.0 0.00 0.00 0.00 99 1025.5
20260507103639 51 352 0.0 0.0 0.00 0.00 0.00 99 1025.5
20260507103136 51 279 0.0 0.0 0.00 0.00 0.00 99 1025.4
20260507102632 51 279 0.0 0.0 0.00 0.00 0.00 99 1025.4
20260507102128 51 90 0.0 0.0 0.00 0.00 0.00 99 1025.0
20260507101624 52 90 0.0 0.0 0.00 0.00 0.00 99 1025.4
20260507101120 52 90 0.0 0.0 0.00 0.00 0.00 99 1025.1
20260507100618 52 90 0.0 0.0 0.00 0.00 0.00 99 1025.1
20260507100116 52 90 0.0 0.0 0.00 0.00 0.00 99 1024.9
20260507095614 52 306 1.0 2.0 0.00 0.00 0.00 99 1024.8
20260507095110 52 345 0.0 1.0 0.00 0.00 0.00 99 1025.1
20260507094606 52 345 0.0 1.0 0.00 0.00 0.00 99 1024.9
20260507094103 52 7 0.0 1.0 0.00 0.00 0.00 99 1024.9
20260507093601 52 82 0.0 1.0 0.00 0.00 0.00 99 1024.8
20260507093059 52 0 0.0 2.0 0.00 0.00 0.00 99 1024.6
20260507092555 52 8 0.0 1.0 0.00 0.00 0.00 99 1024.8
20260507092052 53 74 0.0 2.0 0.00 0.00 0.00 99 1024.8
20260507091549 53 7 0.0 1.0 0.00 0.00 0.00 99 1024.9
20260507091045 53 29 1.0 2.0 0.00 0.00 0.00 99 1024.8
20260507090541 53 48 2.0 3.0 0.00 0.00 0.00 99 1024.6
20260507090038 53 15 1.0 2.0 0.00 0.00 0.00 99 1024.9
20260507085535 53 346 0.0 2.0 0.00 0.00 0.00 99 1024.7
20260507085032 53 35 0.0 2.0 0.00 0.00 0.00 99 1024.4
20260507084528 53 0 0.0 2.0 0.00 0.00 0.00 99 1024.5
20260507084026 53 60 0.0 3.0 0.00 0.00 0.00 99 1024.5
20260507083521 53 23 0.0 0.0 0.00 0.00 0.00 99 1024.5
20260507083019 54 49 0.0 3.0 0.00 0.00 0.00 99 1024.6
20260507082515 54 45 3.0 3.0 0.00 0.00 0.00 99 1024.7
20260507082011 54 45 3.0 3.0 0.00 0.00 0.00 99 1024.7
20260507081508 54 63 0.0 4.0 0.00 0.00 0.00 99 1024.5
20260507081005 53 85 2.0 2.0 0.00 0.00 0.00 99 1024.5
20260507080500 54 80 0.0 3.0 0.00 0.00 0.00 99 1024.4
20260507075956 54 71 1.0 2.0 0.00 0.00 0.00 99 1024.4
20260507075452 54 47 3.0 3.0 0.00 0.00 0.00 99 1024.5
20260507074949 54 14 0.0 3.0 0.00 0.00 0.00 99 1024.4
20260507074446 54 11 1.0 3.0 0.00 0.00 0.00 99 1024.3
20260507073944 54 82 1.0 4.0 0.00 0.00 0.00 99 1024.1
20260507073440 54 45 3.0 5.0 0.00 0.00 0.00 99 1024.0
20260507072937 54 21 4.0 4.0 0.00 0.00 0.00 99 1024.4
20260507072434 54 69 1.0 5.0 0.00 0.00 0.00 99 1024.3
20260507071932 54 90 0.0 3.0 0.00 0.00 0.00 99 1024.4
20260507071429 55 14 0.0 3.0 0.00 0.00 0.00 99 1024.5
20260507070925 55 41 2.0 2.0 0.00 0.00 0.00 99 1024.5
20260507070423 55 18 1.0 2.0 0.00 0.00 0.00 99 1024.6
20260507065919 55 90 0.0 3.0 0.00 0.00 0.00 99 1024.3
20260507065416 55 98 0.0 4.0 0.00 0.00 0.00 99 1024.4
20260507064913 55 65 2.0 4.0 0.00 0.00 0.00 99 1024.4
20260507064411 55 119 0.0 4.0 0.00 0.00 0.00 99 1024.2
20260507063909 55 52 3.0 4.0 0.00 0.00 0.00 99 1024.2
20260507063406 55 180 0.0 3.0 0.00 0.00 0.00 99 1024.1
20260507062903 55 81 0.0 3.0 0.00 0.00 0.00 99 1024.3
20260507062359 55 41 4.0 5.0 0.00 0.00 0.00 99 1024.1
20260507061857 55 18 2.0 3.0 0.00 0.00 0.00 99 1023.9
20260507061355 55 105 0.0 2.0 0.00 0.00 0.00 99 1023.9
20260507060853 55 144 0.0 4.0 0.00 0.00 0.00 99 1024.0
20260507060349 56 90 0.0 2.0 0.00 0.00 0.00 99 1023.9
20260507055846 56 90 1.0 4.0 0.00 0.00 0.00 99 1024.0
20260507055341 56 140 2.0 2.0 0.00 0.00 0.00 99 1023.8
20260507054839 56 140 0.0 2.0 0.00 0.00 0.00 99 1023.8
20260507054335 56 49 2.0 2.0 0.00 0.00 0.00 99 1023.9
20260507053832 56 56 2.0 2.0 0.00 0.00 0.00 99 1023.8
20260507053329 56 67 2.0 2.0 0.00 0.00 0.00 99 1023.8
20260507052828 56 100 2.0 2.0 0.00 0.00 0.00 99 1024.0
20260507052324 57 99 0.0 1.0 0.00 0.00 0.00 99 1023.9
20260507051822 57 97 0.0 2.0 0.00 0.00 0.00 99 1024.0
20260507051320 57 111 0.0 1.0 0.00 0.00 0.00 99 1023.9
20260507050816 57 10 3.0 4.0 0.00 0.00 0.00 99 1023.9
20260507050313 57 106 1.0 4.0 0.00 0.00 0.00 99 1024.3